TimeEST,TemperatureF,Dew PointF,Humidity,Sea Level PressureIn,VisibilityMPH,Wind Direction,Wind SpeedMPH,Gust SpeedMPH,PrecipitationIn,Events,Conditions,WindDirDegrees,DateUTC
12:26 AM,37.4,30.2,75,30.01,10.0,WNW,6.9,-,N/A,,Overcast,300,2012-11-04 04:26:00
12:56 AM,37.9,30.0,73,30.03,10.0,WNW,6.9,-,N/A,,Overcast,300,2012-11-04 04:56:00
1:12 AM,37.4,30.2,75,30.01,10.0,NW,6.9,-,N/A,,Overcast,310,2012-11-04 05:12:00
1:38 AM,37.4,30.2,75,30.01,10.0,WNW,6.9,-,N/A,,Overcast,300,2012-11-04 05:38:00
1:56 AM,37.0,30.0,76,30.02,10.0,NW,5.8,-,N/A,,Overcast,310,2012-11-04 05:56:00
1:06 AM,37.4,30.2,75,30.01,10.0,WNW,5.8,-,N/A,,Overcast,300,2012-11-04 06:06:00
1:13 AM,37.4,30.2,75,30.01,10.0,WNW,4.6,-,N/A,,Overcast,300,2012-11-04 06:13:00
1:56 AM,37.0,30.9,79,30.02,10.0,WNW,5.8,-,N/A,,Overcast,300,2012-11-04 06:56:00
2:52 AM,37.4,30.2,75,30.02,10.0,WNW,5.8,-,N/A,,Overcast,300,2012-11-04 07:52:00
2:56 AM,37.0,30.0,76,30.03,10.0,WNW,5.8,-,N/A,,Overcast,300,2012-11-04 07:56:00
3:56 AM,37.0,30.0,76,30.04,10.0,NW,6.9,-,N/A,,Overcast,310,2012-11-04 08:56:00
4:24 AM,37.4,30.2,75,30.03,10.0,NW,8.1,-,N/A,,Overcast,310,2012-11-04 09:24:00
4:56 AM,36.0,30.0,79,30.05,10.0,WNW,3.5,-,N/A,,Overcast,290,2012-11-04 09:56:00
5:26 AM,37.4,30.2,75,30.04,10.0,WNW,4.6,-,N/A,,Overcast,300,2012-11-04 10:26:00
5:56 AM,37.0,30.9,79,30.06,10.0,WNW,3.5,-,N/A,,Overcast,300,2012-11-04 10:56:00
6:56 AM,37.4,28.4,70,30.05,10.0,NNW,5.8,-,N/A,,Overcast,330,2012-11-04 11:56:00
7:10 AM,37.4,28.4,70,30.06,10.0,NNW,3.5,-,N/A,,Overcast,330,2012-11-04 12:10:00
7:56 AM,37.0,28.9,73,30.07,10.0,NNW,4.6,-,N/A,,Overcast,330,2012-11-04 12:56:00
8:56 AM,37.0,28.0,70,30.06,10.0,North,9.2,-,N/A,,Overcast,350,2012-11-04 13:56:00
9:56 AM,37.0,28.9,73,30.06,10.0,NW,8.1,-,N/A,,Overcast,320,2012-11-04 14:56:00
10:56 AM,37.9,28.9,70,30.06,10.0,NNW,9.2,-,N/A,,Overcast,340,2012-11-04 15:56:00
11:56 AM,37.9,30.0,73,30.06,10.0,NNW,9.2,-,N/A,,Overcast,330,2012-11-04 16:56:00
12:52 PM,39.2,26.6,61,30.04,10.0,NW,6.9,-,N/A,,Overcast,320,2012-11-04 17:52:00
12:56 PM,39.0,28.0,65,30.05,10.0,NNW,11.5,-,N/A,,Overcast,340,2012-11-04 17:56:00
1:07 PM,37.4,28.4,70,30.04,10.0,North,8.1,-,N/A,,Overcast,350,2012-11-04 18:07:00
1:56 PM,37.9,27.0,65,30.05,10.0,NNW,9.2,-,N/A,,Overcast,340,2012-11-04 18:56:00
2:33 PM,37.4,26.6,65,30.04,10.0,WNW,8.1,-,N/A,,Overcast,290,2012-11-04 19:33:00
2:56 PM,37.9,26.1,62,30.06,10.0,NW,5.8,-,N/A,,Overcast,320,2012-11-04 19:56:00
3:56 PM,37.9,26.1,62,30.06,10.0,NW,6.9,-,N/A,,Overcast,320,2012-11-04 20:56:00
4:56 PM,37.0,24.1,59,30.07,10.0,NW,6.9,-,N/A,,Overcast,320,2012-11-04 21:56:00
5:56 PM,37.0,25.0,62,30.07,10.0,NNW,5.8,-,N/A,,Overcast,330,2012-11-04 22:56:00
6:56 PM,37.0,26.1,65,30.08,10.0,NNW,3.5,-,N/A,,Overcast,340,2012-11-04 23:56:00
7:56 PM,37.0,27.0,67,30.09,10.0,NNW,5.8,-,N/A,,Overcast,330,2012-11-05 00:56:00
8:56 PM,36.0,25.0,64,30.10,10.0,NW,3.5,-,N/A,,Overcast,320,2012-11-05 01:56:00
9:56 PM,36.0,26.1,67,30.09,10.0,NW,4.6,-,N/A,,Overcast,320,2012-11-05 02:56:00
10:56 PM,35.1,26.1,70,30.09,10.0,WNW,3.5,-,N/A,,Overcast,300,2012-11-05 03:56:00